TimeAST,TemperatureF,Dew PointF,Humidity,Sea Level PressureIn,VisibilityMPH,Wind Direction,Wind SpeedMPH,Gust SpeedMPH,PrecipitationIn,Events,Conditions,WindDirDegrees,DateUTC
12:56 AM,73.0,63.0,71,30.02,10.0,Calm,Calm,-,N/A,,Partly Cloudy,0,2013-03-09 04:56:00
1:56 AM,72.0,63.0,73,29.99,10.0,Calm,Calm,-,N/A,,Partly Cloudy,0,2013-03-09 05:56:00
2:56 AM,72.0,64.0,76,29.97,10.0,Calm,Calm,-,N/A,,Partly Cloudy,0,2013-03-09 06:56:00
3:56 AM,72.0,64.0,76,29.97,10.0,Calm,Calm,-,N/A,,Partly Cloudy,0,2013-03-09 07:56:00
4:56 AM,72.0,64.9,78,29.98,10.0,Calm,Calm,-,N/A,,Partly Cloudy,0,2013-03-09 08:56:00
5:56 AM,71.1,64.9,81,29.99,10.0,Calm,Calm,-,N/A,,Partly Cloudy,0,2013-03-09 09:56:00
6:56 AM,72.0,64.9,78,30.01,10.0,Calm,Calm,-,N/A,,Mostly Cloudy,0,2013-03-09 10:56:00
7:56 AM,73.0,64.9,76,30.03,10.0,Calm,Calm,-,N/A,,Mostly Cloudy,0,2013-03-09 11:56:00
8:56 AM,77.0,66.0,69,30.05,10.0,Calm,Calm,-,N/A,,Mostly Cloudy,0,2013-03-09 12:56:00
9:56 AM,79.0,66.9,66,30.06,10.0,Variable,5.8,-,N/A,,Mostly Cloudy,0,2013-03-09 13:56:00
10:56 AM,79.0,66.0,64,30.05,10.0,North,5.8,-,N/A,,Mostly Cloudy,10,2013-03-09 14:56:00
11:56 AM,81.0,66.9,62,30.04,10.0,North,6.9,-,N/A,,Mostly Cloudy,10,2013-03-09 15:56:00
12:56 PM,82.0,66.9,60,30.02,10.0,North,9.2,-,N/A,,Mostly Cloudy,350,2013-03-09 16:56:00
1:56 PM,80.1,64.9,60,30.00,10.0,North,8.1,-,N/A,,Mostly Cloudy,360,2013-03-09 17:56:00
2:56 PM,79.0,66.0,64,29.98,10.0,North,9.2,-,N/A,,Mostly Cloudy,10,2013-03-09 18:56:00
3:56 PM,78.1,64.0,62,29.97,10.0,North,8.1,-,N/A,,Overcast,360,2013-03-09 19:56:00
4:56 PM,75.0,66.0,73,29.99,4.0,NW,4.6,-,0.01,Rain,Light Rain,320,2013-03-09 20:56:00
5:56 PM,73.0,69.1,87,30.00,10.0,Calm,Calm,-,0.01,,Overcast,0,2013-03-09 21:56:00
6:56 PM,73.9,68.0,82,30.01,10.0,Calm,Calm,-,N/A,,Overcast,0,2013-03-09 22:56:00
7:56 PM,73.9,68.0,82,30.02,10.0,SSE,3.5,-,N/A,,Mostly Cloudy,160,2013-03-09 23:56:00
8:56 PM,73.9,69.1,85,30.03,10.0,Calm,Calm,-,N/A,,Mostly Cloudy,0,2013-03-10 00:56:00
9:56 PM,73.9,68.0,82,30.04,10.0,SW,3.5,-,N/A,,Scattered Clouds,220,2013-03-10 01:56:00
10:56 PM,73.0,68.0,84,30.04,10.0,Calm,Calm,-,N/A,,Scattered Clouds,0,2013-03-10 02:56:00
11:56 PM,73.0,66.9,81,30.04,10.0,Calm,Calm,-,N/A,,Scattered Clouds,0,2013-03-10 03:56:00